• In Hungary
  • List of Countries
  • For 7 days
  • Water Temperature
  • Satellite Maps
  • Weather Map
  • News
  • Weather Widgets
  • user-avatar
    Login

    Hourly Weather Kyushnur

    Today, 18 December, Monday

    Time Temperature Precipitation Wind Pressure Humidity
    00:00 -8°C° 0.1 mm 6 mps 755 mmHg 88%
    01:00 -8°C° 0.1 mm 6 mps 756 mmHg 89%
    02:00 -8°C° 0.1 mm 6 mps 756 mmHg 89%
    03:00 -7°C° 0 mm 4 mps 756 mmHg 90%
    04:00 -7°C° 0.1 mm 4 mps 756 mmHg 90%
    05:00 -7°C° 0.1 mm 4 mps 757 mmHg 91%
    06:00 -7°C° 0.1 mm 4 mps 757 mmHg 92%
    07:00 -7°C° 0.3 mm 4 mps 757 mmHg 92%
    08:00 -7°C° 0.3 mm 4 mps 757 mmHg 93%
    09:00 -7°C° 0 mm 4 mps 758 mmHg 94%
    10:00 -7°C° 0.5 mm 4 mps 758 mmHg 94%
    11:00 -7°C° 0.5 mm 4 mps 758 mmHg 95%
    12:00 -7°C° 0.5 mm 4 mps 759 mmHg 95%
    13:00 -6°C° 0.5 mm 3 mps 759 mmHg 94%
    14:00 -7°C° 0.5 mm 3 mps 759 mmHg 94%
    15:00 -7°C° 0.5 mm 3 mps 759 mmHg 93%
    16:00 -7°C° 0.1 mm 3 mps 759 mmHg 93%
    17:00 -8°C° 0.1 mm 3 mps 759 mmHg 92%
    18:00 -8°C° 0.1 mm 3 mps 759 mmHg 92%
    19:00 -9°C° 0 mm 3 mps 759 mmHg 92%
    20:00 -9°C° 0 mm 3 mps 759 mmHg 91%
    21:00 -10°C° 0 mm 3 mps 759 mmHg 91%
    22:00 -10°C° 0 mm 3 mps 759 mmHg 91%
    23:00 -10°C° 0 mm 3 mps 759 mmHg 90%

    Tomorrow, 19 December, Tuesday

    Time Temperature Precipitation Wind Pressure Humidity
    00:00 -10°C° 0 mm 3 mps 759 mmHg 90%
    01:00 -12°C° 0 mm 3 mps 759 mmHg 89%
    02:00 -12°C° 0 mm 4 mps 759 mmHg 88%
    03:00 -12°C° 0 mm 4 mps 759 mmHg 87%
    04:00 -12°C° 0 mm 4 mps 759 mmHg 86%
    05:00 -12°C° 0 mm 4 mps 758 mmHg 85%
    06:00 -12°C° 0 mm 4 mps 758 mmHg 83%
    07:00 -11°C° 0 mm 4 mps 758 mmHg 83%
    08:00 -11°C° 0 mm 4 mps 758 mmHg 84%
    09:00 -11°C° 0 mm 4 mps 758 mmHg 84%
    10:00 -11°C° 0 mm 4 mps 758 mmHg 85%
    11:00 -11°C° 0 mm 4 mps 758 mmHg 86%
    12:00 -10°C° 0 mm 4 mps 758 mmHg 88%
    13:00 -10°C° 0.1 mm 4 mps 758 mmHg 89%
    14:00 -10°C° 0.1 mm 4 mps 758 mmHg 90%
    15:00 -9°C° 0.1 mm 3 mps 758 mmHg 91%
    16:00 -9°C° 0.1 mm 3 mps 758 mmHg 92%
    17:00 -9°C° 0.1 mm 3 mps 758 mmHg 92%
    18:00 -9°C° 0.1 mm 3 mps 758 mmHg 93%
    19:00 -9°C° 0.1 mm 3 mps 758 mmHg 93%
    20:00 -9°C° 0.1 mm 3 mps 759 mmHg 93%
    21:00 -9°C° 0.1 mm 3 mps 759 mmHg 93%
    22:00 -9°C° 0 mm 3 mps 759 mmHg 93%
    23:00 -9°C° 0 mm 3 mps 759 mmHg 93%

    Day after tomorrow, 20 December, Wednesday

    Time Temperature Precipitation Wind Pressure Humidity
    00:00 -9°C° 0 mm 3 mps 759 mmHg 93%
    01:00 -9°C° 0 mm 2 mps 759 mmHg 93%
    02:00 -9°C° 0 mm 2 mps 760 mmHg 93%
    03:00 -9°C° 0 mm 2 mps 760 mmHg 92%
    04:00 -10°C° 0 mm 2 mps 760 mmHg 92%
    05:00 -10°C° 0 mm 2 mps 760 mmHg 93%
    06:00 -12°C° 0 mm 2 mps 760 mmHg 93%
    07:00 -13°C° 0 mm 2 mps 760 mmHg 92%
    08:00 -13°C° 0 mm 2 mps 760 mmHg 92%
    09:00 -14°C° 0 mm 2 mps 761 mmHg 91%
    10:00 -13°C° 0 mm 2 mps 761 mmHg 91%
    11:00 -12°C° 0 mm 2 mps 761 mmHg 90%
    12:00 -10°C° 0 mm 1 mps 761 mmHg 89%
    13:00 -10°C° 0 mm 1 mps 761 mmHg 90%
    14:00 -11°C° 0 mm 1 mps 761 mmHg 91%
    15:00 -11°C° 0 mm 1 mps 761 mmHg 91%
    16:00 -12°C° 0 mm 1 mps 761 mmHg 92%
    17:00 -12°C° 0 mm 1 mps 762 mmHg 92%
    18:00 -12°C° 0 mm 1 mps 762 mmHg 92%
    19:00 -12°C° 0 mm 1 mps 762 mmHg 93%
    20:00 -12°C° 0 mm 1 mps 762 mmHg 93%
    21:00 -12°C° 0 mm 1 mps 762 mmHg 94%
    22:00 -12°C° 0 mm 1 mps 762 mmHg 95%
    23:00 -12°C° 0 mm 1 mps 763 mmHg 95%

    21 December, Thursday

    Time Temperature Precipitation Wind Pressure Humidity
    00:00 -13°C° 0 mm 2 mps 763 mmHg 96%
    01:00 -12°C° 0 mm 2 mps 763 mmHg 96%
    02:00 -9°C° 0 mm 1 mps 763 mmHg 96%
    03:00 -7°C° 0 mm 1 mps 763 mmHg 97%
    04:00 -8°C° 0 mm 2 mps 763 mmHg 97%
    05:00 -7°C° 0 mm 2 mps 763 mmHg 97%
    06:00 -6°C° 0 mm 2 mps 763 mmHg 97%
    07:00 -6°C° 0 mm 2 mps 763 mmHg 97%
    08:00 -5°C° 0 mm 2 mps 763 mmHg 97%
    09:00 -5°C° 0 mm 2 mps 763 mmHg 96%
    10:00 -5°C° 0 mm 3 mps 763 mmHg 96%
    11:00 -5°C° 0 mm 3 mps 763 mmHg 96%
    12:00 -4°C° 0 mm 3 mps 763 mmHg 95%
    13:00 -4°C° 0 mm 3 mps 762 mmHg 95%
    14:00 -4°C° 0 mm 3 mps 762 mmHg 95%
    15:00 -3°C° 0 mm 2 mps 762 mmHg 95%
    16:00 -3°C° 0 mm 2 mps 762 mmHg 96%
    17:00 -4°C° 0 mm 2 mps 761 mmHg 96%
    18:00 -4°C° 0 mm 2 mps 761 mmHg 96%
    19:00 -5°C° 0 mm 3 mps 760 mmHg 96%
    20:00 -6°C° 0 mm 3 mps 760 mmHg 96%
    21:00 -7°C° 0 mm 4 mps 759 mmHg 97%
    22:00 -7°C° 0.1 mm 4 mps 759 mmHg 96%
    23:00 -7°C° 0.1 mm 4 mps 759 mmHg 95%

    22 December, Friday

    Time Temperature Precipitation Wind Pressure Humidity
    00:00 -7°C° 0.1 mm 4 mps 758 mmHg 94%
    01:00 -7°C° 0.2 mm 4 mps 758 mmHg 94%
    02:00 -7°C° 0.2 mm 4 mps 757 mmHg 93%
    03:00 -7°C° 0.2 mm 5 mps 756 mmHg 93%
    04:00 -8°C° 0 mm 4 mps 756 mmHg 93%
    05:00 -9°C° 0 mm 4 mps 755 mmHg 93%
    06:00 -10°C° 0 mm 4 mps 755 mmHg 94%
    07:00 -10°C° 0.1 mm 4 mps 755 mmHg 94%
    08:00 -10°C° 0.1 mm 4 mps 754 mmHg 94%
    09:00 -10°C° 0.1 mm 4 mps 754 mmHg 94%
    10:00 -9°C° 0 mm 4 mps 754 mmHg 94%
    11:00 -9°C° 0 mm 4 mps 754 mmHg 94%
    12:00 -8°C° 0 mm 4 mps 753 mmHg 94%
    13:00 -7°C° 0 mm 3 mps 753 mmHg 94%
    14:00 -7°C° 0 mm 3 mps 753 mmHg 94%
    15:00 -7°C° 0 mm 3 mps 752 mmHg 94%
    16:00 -7°C° 0 mm 3 mps 752 mmHg 95%
    17:00 -7°C° 0 mm 3 mps 752 mmHg 95%
    18:00 -7°C° 0 mm 3 mps 752 mmHg 95%
    19:00 -7°C° 0 mm 3 mps 752 mmHg 95%
    20:00 -7°C° 0 mm 3 mps 751 mmHg 96%
    21:00 -7°C° 0 mm 3 mps 751 mmHg 96%
    22:00 -7°C° 0 mm 3 mps 751 mmHg 96%
    23:00 -6°C° 0 mm 2 mps 751 mmHg 96%

    23 December, Saturday

    Time Temperature Precipitation Wind Pressure Humidity
    00:00 -6°C° 0 mm 2 mps 750 mmHg 96%
    01:00 -6°C° 0.1 mm 2 mps 750 mmHg 96%
    02:00 -6°C° 0.1 mm 2 mps 750 mmHg 96%
    03:00 -6°C° 0.1 mm 2 mps 749 mmHg 96%
    04:00 -6°C° 0.1 mm 2 mps 749 mmHg 97%
    05:00 -7°C° 0.1 mm 2 mps 749 mmHg 97%
    06:00 -6°C° 0.1 mm 1 mps 748 mmHg 97%
    07:00 -6°C° 0.1 mm 1 mps 748 mmHg 97%
    08:00 -6°C° 0.1 mm 1 mps 748 mmHg 97%
    09:00 -6°C° 0.1 mm 1 mps 748 mmHg 97%
    10:00 -4°C° 0.1 mm 1 mps 747 mmHg 97%
    11:00 -4°C° 0.1 mm 1 mps 747 mmHg 96%
    12:00 -4°C° 0.1 mm 1 mps 747 mmHg 96%
    13:00 -4°C° 0 mm 1 mps 747 mmHg 96%
    14:00 -4°C° 0 mm 1 mps 747 mmHg 96%
    15:00 -4°C° 0 mm 1 mps 747 mmHg 96%
    16:00 -4°C° 0 mm 1 mps 747 mmHg 96%
    17:00 -6°C° 0 mm 1 mps 747 mmHg 96%
    18:00 -6°C° 0 mm 1 mps 747 mmHg 96%
    19:00 -6°C° 0 mm 1 mps 747 mmHg 96%
    20:00 -8°C° 0 mm 2 mps 747 mmHg 97%
    21:00 -9°C° 0 mm 2 mps 747 mmHg 97%
    22:00 -9°C° 0 mm 2 mps 747 mmHg 97%
    23:00 -9°C° 0 mm 2 mps 747 mmHg 97%
    Show more